PBO Station Position Time Series. Reference Frame : NAM14
Format Version,1.1.0
4-character ID,AC48
Station name,NakedIsl__AK2007
Begin Date, 2007-08-31
End Date, 2019-07-22
Release Date, 2019-10-03
Reference position, 60.6458633720 North Latitude, -147.3430182569 East Longitude, 379.53153 meters elevation,
Date, North (mm), East (mm), Vertical (mm), North Std. Deviation (mm), East Std. Deviation (mm),              Vertical Std. Deviation (mm), Quality,
2007-08-31,0.00, 0.00, 0.00, 2.73, 1.89, 8.93, repro,
2007-10-04,1.75, 0.19, 31.75, 9.82, 6.16, 31.43, repro,
2007-10-05,-3.41, 1.39, 9.71, 2.30, 1.55, 7.31, repro,
2007-10-06,-2.06, 1.87, 12.57, 2.31, 1.54, 7.27, repro,
2007-10-07,-0.65, 1.12, 5.29, 2.33, 1.54, 7.38, repro,
2007-10-08,-0.57, 1.74, 1.69, 2.49, 1.65, 7.86, repro,
2007-10-09,1.55, 0.85, 4.54, 2.45, 1.68, 7.77, repro,
2007-10-10,-0.09, 1.80, 6.78, 2.41, 1.63, 7.73, repro,
2007-10-11,-0.84, 1.67, 8.95, 2.30, 1.53, 7.23, repro,
2007-10-12,-0.43, -0.90, 11.62, 2.31, 1.55, 7.31, repro,
2007-10-13,-1.81, 0.87, 8.88, 2.32, 1.55, 7.41, repro,
2007-10-14,-0.78, 0.28, 10.85, 2.34, 1.56, 7.44, repro,
2007-10-15,-2.91, 2.60, 3.00, 2.33, 1.54, 7.36, repro,
2007-10-16,-0.67, 1.36, 5.40, 2.31, 1.54, 7.26, repro,
2007-10-17,-0.72, 0.86, 4.98, 2.37, 1.57, 7.41, repro,
2007-10-18,-0.24, 0.68, 17.65, 2.38, 1.58, 7.50, repro,
2007-10-19,-0.19, 1.32, 14.54, 2.36, 1.56, 7.49, repro,
2007-10-20,0.80, 0.07, 11.75, 2.33, 1.56, 7.42, repro,
2007-10-21,0.89, 1.24, 8.71, 2.29, 1.54, 7.28, repro,
2007-10-22,1.48, 0.37, 8.24, 2.36, 1.56, 7.42, repro,
2007-10-23,2.52, -1.33, 8.78, 2.36, 1.58, 7.43, repro,
2007-10-24,1.09, 0.64, 7.49, 2.39, 1.58, 7.50, repro,
2007-10-25,1.03, 0.08, 5.95, 2.41, 1.59, 7.54, repro,
2007-10-26,0.28, -0.50, 7.39, 2.39, 1.60, 7.60, repro,
2007-10-27,1.96, -0.12, 6.92, 2.36, 1.59, 7.42, repro,
2007-10-28,1.08, -1.23, 7.77, 2.35, 1.57, 7.40, repro,
2007-10-29,1.25, -0.45, 6.63, 2.36, 1.57, 7.42, repro,
2007-10-30,1.58, 0.94, 13.06, 2.39, 1.58, 7.52, repro,
2007-10-31,-0.41, 0.83, 14.08, 2.43, 1.60, 7.59, repro,
2007-11-01,0.91, -0.93, 13.93, 2.31, 1.53, 7.29, repro,
2007-11-02,0.10, 0.32, 9.33, 2.30, 1.52, 7.31, repro,
2007-11-03,2.17, -0.28, 8.93, 2.33, 1.53, 7.37, repro,
2007-11-04,3.45, 1.26, 6.06, 2.32, 1.54, 7.38, repro,
2007-11-05,2.05, -0.21, 1.23, 2.31, 1.52, 7.35, repro,
2007-11-06,0.17, -0.21, 11.28, 2.34, 1.55, 7.47, repro,
2007-11-07,0.85, -0.63, 5.76, 2.31, 1.53, 7.33, repro,
2007-11-08,1.51, 0.78, 12.13, 2.36, 1.55, 7.39, repro,
2007-11-09,-0.70, 0.72, 11.08, 2.40, 1.58, 7.51, repro,
2007-11-10,0.15, 0.59, 14.83, 2.31, 1.54, 7.33, repro,
2007-11-11,0.16, -1.01, 3.35, 2.33, 1.54, 7.38, repro,
2007-11-12,-0.50, -0.15, 15.71, 2.36, 1.59, 7.53, repro,
2007-11-13,-2.34, -0.62, 13.37, 2.31, 1.53, 7.31, repro,
2007-11-14,-0.20, 0.42, 7.14, 2.32, 1.53, 7.31, repro,
2007-11-15,-0.42, 0.64, 12.52, 2.32, 1.53, 7.34, repro,
2007-11-16,-1.76, 1.32, 14.73, 2.32, 1.54, 7.36, repro,
2007-11-17,-3.23, 0.43, 1.32, 2.31, 1.54, 7.32, repro,
2007-11-18,-3.59, -2.26, -1.44, 2.42, 1.59, 7.54, repro,
2007-11-19,-3.54, -4.34, 2.24, 2.35, 1.55, 7.44, repro,
2007-11-20,-0.99, -0.44, 4.78, 2.46, 1.61, 7.81, repro,
2007-11-21,-1.46, 2.21, 1.25, 2.36, 1.56, 7.43, repro,
2007-11-22,-1.15, 0.14, 1.40, 2.34, 1.55, 7.38, repro,
2007-11-23,-1.46, -0.94, 0.78, 2.40, 1.60, 7.73, repro,
2007-11-24,-0.30, 0.97, 7.77, 2.37, 1.57, 7.55, repro,
2007-11-25,-0.06, 1.61, 1.32, 2.36, 1.56, 7.48, repro,
2007-11-26,-1.66, 2.19, 5.85, 2.45, 1.63, 8.15, repro,
2007-11-27,-0.72, -0.19, -0.30, 2.38, 1.56, 7.46, repro,
2007-11-28,-3.14, -0.65, -10.03, 2.38, 1.57, 7.55, repro,
2007-11-29,-0.29, 1.81, -6.75, 2.40, 1.60, 7.86, repro,
2007-11-30,-1.02, 1.76, -5.81, 2.37, 1.56, 7.53, repro,
2007-12-01,-1.01, 1.42, 0.44, 2.42, 1.60, 7.67, repro,
2007-12-02,1.36, 0.35, -3.41, 2.41, 1.62, 7.89, repro,
2007-12-03,-0.45, 0.83, 2.68, 2.44, 1.66, 8.12, repro,
2007-12-04,-2.09, 1.09, 3.57, 2.46, 1.69, 8.08, repro,
2007-12-05,-1.03, -1.23, -3.95, 2.42, 1.65, 8.04, repro,
2007-12-06,0.53, -1.15, -6.37, 2.43, 1.64, 8.02, repro,
2007-12-07,0.27, -0.33, -9.93, 2.42, 1.65, 8.05, repro,
2007-12-08,0.52, -2.33, -3.98, 2.39, 1.61, 7.87, repro,
2007-12-09,-2.31, -0.98, -3.63, 2.54, 1.79, 8.92, repro,
2007-12-10,0.65, -1.10, 0.08, 2.38, 1.60, 7.81, repro,
2007-12-11,-0.07, -1.01, -8.46, 2.35, 1.57, 7.52, repro,
2007-12-12,0.24, 1.26, -4.83, 2.38, 1.59, 7.66, repro,
2007-12-13,-1.46, 2.12, -9.81, 2.44, 1.66, 7.96, repro,
2007-12-14,0.45, 2.27, -10.77, 2.36, 1.56, 7.51, repro,
2007-12-15,0.84, 2.07, 0.55, 2.35, 1.56, 7.53, repro,
2007-12-16,1.06, 1.83, -5.01, 2.34, 1.55, 7.43, repro,
2007-12-17,0.01, 1.17, -0.21, 2.39, 1.59, 7.64, repro,
2007-12-18,-0.40, 1.78, 3.95, 2.40, 1.60, 7.73, repro,
2007-12-19,-1.27, 1.54, -2.26, 2.40, 1.59, 7.67, repro,
2007-12-20,-1.00, 1.01, 2.47, 2.39, 1.60, 7.81, repro,
2007-12-21,0.25, 1.55, -13.44, 2.46, 1.66, 8.13, repro,
2007-12-22,-1.14, 2.49, -7.30, 2.42, 1.67, 8.00, repro,
2007-12-23,-0.04, 3.76, -4.67, 2.40, 1.61, 7.78, repro,
2007-12-24,-1.52, 1.84, -7.91, 2.43, 1.66, 7.98, repro,
2007-12-25,-1.11, 3.15, -1.25, 2.37, 1.57, 7.56, repro,
2007-12-26,-0.64, -0.83, 1.65, 2.37, 1.60, 7.84, repro,
2007-12-27,-4.92, -1.28, 3.68, 2.48, 1.65, 7.83, repro,
2007-12-28,-3.25, -0.32, 5.41, 2.51, 1.66, 8.05, repro,
2007-12-29,-1.86, -0.72, 1.61, 2.42, 1.58, 7.65, repro,
2007-12-30,-0.51, 0.79, -1.82, 2.42, 1.60, 7.67, repro,
2007-12-31,2.21, -0.33, -5.27, 2.35, 1.56, 7.55, repro,
2008-01-01,-0.28, -0.87, -6.98, 2.32, 1.54, 7.44, repro,
2008-01-02,0.48, -1.48, -1.09, 2.34, 1.56, 7.50, repro,
2008-01-03,-0.43, -2.31, 2.41, 2.31, 1.54, 7.36, repro,
2008-01-04,-1.57, -2.69, 8.74, 2.31, 1.54, 7.35, repro,
2008-01-05,-1.20, -1.38, 6.66, 2.34, 1.56, 7.44, repro,
2008-01-06,-1.54, -2.34, -1.30, 2.30, 1.53, 7.30, repro,
2008-01-07,-0.47, -0.85, 3.18, 2.31, 1.53, 7.31, repro,
2008-01-08,-0.00, -2.83, -2.10, 2.34, 1.55, 7.52, repro,
2008-01-09,0.60, -2.93, -1.09, 2.34, 1.55, 7.51, repro,
2008-01-10,-0.64, -1.28, 1.58, 2.30, 1.53, 7.27, repro,
2008-01-11,0.20, -1.47, -4.66, 2.30, 1.53, 7.27, repro,
2008-01-12,0.76, 0.32, -7.53, 2.30, 1.53, 7.27, repro,
2008-01-13,0.71, -1.27, -12.85, 2.31, 1.53, 7.27, repro,
2008-01-14,0.94, -1.28, -12.31, 2.33, 1.53, 7.31, repro,
2008-01-15,-0.36, -1.75, -10.27, 2.33, 1.53, 7.32, repro,
2008-01-16,-0.44, -2.28, -11.83, 2.36, 1.58, 7.63, repro,
2008-01-17,-0.15, -1.03, -12.10, 2.34, 1.55, 7.47, repro,
2008-01-18,-0.90, -2.75, -16.59, 2.36, 1.56, 7.47, repro,
2008-01-19,-1.03, -4.87, -12.83, 2.32, 1.54, 7.34, repro,
2008-01-20,2.28, -1.14, -15.30, 2.33, 1.53, 7.33, repro,
2008-01-21,-1.55, -1.79, -15.89, 2.39, 1.59, 7.58, repro,
2008-01-22,0.89, -4.88, -8.68, 2.30, 1.55, 7.28, repro,
2008-01-23,0.08, 0.27, -7.89, 2.30, 1.53, 7.25, repro,
2008-01-24,3.05, 3.67, -17.12, 2.32, 1.53, 7.29, repro,
2008-01-25,3.57, 3.75, -6.51, 2.37, 1.56, 7.55, repro,
2008-01-26,1.67, 4.57, -3.65, 2.37, 1.57, 7.57, repro,
2008-01-27,4.02, 2.22, -6.17, 2.37, 1.58, 7.63, repro,
2008-01-28,0.37, -0.55, 8.17, 2.35, 1.56, 7.51, repro,
2008-01-29,1.64, 0.25, -1.84, 2.46, 1.64, 7.84, repro,
2008-01-30,1.69, -1.52, -3.12, 2.51, 1.68, 8.07, repro,
2008-01-31,0.61, -2.72, 2.37, 2.33, 1.54, 7.38, repro,
2008-02-01,1.11, -3.14, 0.43, 2.33, 1.55, 7.42, repro,
2008-02-02,0.12, -3.13, 0.79, 2.35, 1.55, 7.39, repro,
2008-02-03,2.62, -1.34, -6.55, 2.32, 1.53, 7.27, repro,
2008-02-04,3.14, -2.66, -8.23, 2.32, 1.53, 7.32, repro,
2008-02-05,2.56, -2.33, -9.46, 2.41, 1.63, 7.68, repro,
2008-02-06,1.00, -0.17, 4.83, 2.42, 1.64, 7.72, repro,
2008-02-07,1.29, -1.60, 1.37, 2.39, 1.59, 7.53, repro,
2008-02-08,3.45, -0.85, -4.39, 2.30, 1.53, 7.27, repro,
2008-02-09,2.19, -1.89, 0.22, 2.31, 1.53, 7.30, repro,
2008-02-10,2.55, -1.36, 4.17, 2.34, 1.55, 7.41, repro,
2008-02-11,2.13, -0.89, 1.71, 2.35, 1.57, 7.53, repro,
2008-02-12,1.37, 0.50, -8.30, 2.33, 1.56, 7.47, repro,
2008-02-13,0.08, -0.96, -0.59, 2.31, 1.54, 7.32, repro,
2008-02-14,2.32, -4.47, -0.05, 2.31, 1.55, 7.34, repro,
2008-02-15,2.66, -7.47, -1.50, 2.35, 1.58, 7.56, repro,
2008-02-16,2.51, -5.51, -7.68, 2.32, 1.56, 7.44, repro,
2008-02-17,2.06, -6.94, -14.03, 2.33, 1.56, 7.45, repro,
2008-02-18,4.38, -6.83, 3.96, 2.34, 1.56, 7.49, repro,
2008-02-19,1.10, -2.18, -3.83, 2.32, 1.55, 7.36, repro,
2008-02-20,-1.73, -0.90, -5.68, 2.32, 1.55, 7.40, repro,
2008-02-21,0.36, -3.67, 1.52, 2.32, 1.56, 7.38, repro,
2008-02-22,2.21, -3.16, 1.14, 2.31, 1.54, 7.38, repro,
2008-02-23,2.79, -2.13, -9.37, 2.33, 1.54, 7.42, repro,
2008-02-24,1.58, -0.83, -4.68, 2.32, 1.54, 7.38, repro,
2008-02-25,1.81, -0.18, -3.91, 2.30, 1.53, 7.35, repro,
2008-02-26,2.60, 0.60, -10.56, 2.29, 1.52, 7.28, repro,
2008-02-27,1.97, -0.05, -13.48, 2.31, 1.53, 7.35, repro,
2008-02-28,1.21, -1.61, -8.80, 2.33, 1.53, 7.41, repro,
2008-02-29,0.50, -0.11, -12.26, 2.34, 1.55, 7.42, repro,
2008-03-01,-0.06, 0.91, -4.29, 2.37, 1.57, 7.45, repro,
2008-03-02,-0.78, -0.39, -4.04, 2.31, 1.55, 7.40, repro,
2008-03-03,-0.94, -0.76, -5.00, 2.32, 1.57, 7.51, repro,
2008-03-04,-0.93, -1.32, -8.31, 2.37, 1.57, 7.50, repro,
2008-03-05,-0.33, -2.63, -3.29, 2.37, 1.58, 7.57, repro,
2008-03-06,0.71, -2.81, -3.12, 2.33, 1.55, 7.41, repro,
2008-03-07,4.05, -5.67, -8.06, 2.32, 1.55, 7.44, repro,
2008-03-08,2.26, -2.07, -1.08, 2.31, 1.56, 7.45, repro,
2008-03-09,-2.14, -1.28, -10.55, 2.42, 1.66, 7.98, repro,
2008-03-10,0.89, -3.72, -4.71, 2.30, 1.54, 7.37, repro,
2008-03-11,-0.05, -2.82, -6.15, 2.32, 1.54, 7.38, repro,
2008-03-12,-0.48, -0.79, -15.10, 2.36, 1.57, 7.51, repro,
2008-03-13,0.38, -1.30, -14.60, 2.30, 1.54, 7.43, repro,
2008-03-14,1.22, -1.88, -20.67, 2.30, 1.54, 7.37, repro,
2008-03-15,0.41, -2.46, -15.88, 2.31, 1.54, 7.35, repro,
2008-03-16,-1.24, -1.89, -7.12, 2.29, 1.53, 7.32, repro,
2008-03-17,-0.05, -3.81, -5.33, 2.43, 1.59, 7.60, repro,
2008-03-18,0.49, -1.53, -15.44, 2.42, 1.59, 7.63, repro,
2008-03-19,1.79, -1.75, -9.73, 2.39, 1.59, 7.57, repro,
2008-03-20,2.82, -0.32, -20.81, 2.39, 1.58, 7.54, repro,
2008-03-21,-0.62, 0.04, -21.20, 2.38, 1.57, 7.53, repro,
2008-03-22,-0.84, -1.82, -22.47, 2.39, 1.58, 7.52, repro,
2008-03-23,-0.58, -2.39, -14.99, 2.37, 1.57, 7.49, repro,
2008-03-24,-0.02, -3.85, -6.91, 2.38, 1.58, 7.54, repro,
2008-03-25,1.27, -3.75, -16.66, 2.41, 1.62, 7.63, repro,
2008-03-26,1.40, -3.73, -15.01, 2.41, 1.63, 7.70, repro,
2008-03-27,-0.12, -3.27, -19.53, 2.42, 1.63, 7.69, repro,
2008-03-28,0.42, -3.31, -15.54, 2.35, 1.55, 7.39, repro,
2008-03-29,0.17, -2.72, -14.02, 2.34, 1.53, 7.34, repro,
2008-03-30,0.72, -3.00, -10.48, 2.35, 1.55, 7.40, repro,
2008-03-31,3.20, -1.85, -20.99, 2.34, 1.56, 7.40, repro,
2008-04-01,1.39, -2.67, -24.66, 2.37, 1.56, 7.51, repro,
2008-04-02,0.83, -4.94, -20.78, 2.36, 1.58, 7.57, repro,
2008-04-03,2.20, -6.06, -27.22, 2.33, 1.55, 7.37, repro,
2008-04-04,0.97, -1.83, -14.10, 2.34, 1.55, 7.37, repro,
2008-04-05,1.45, -3.56, -18.00, 2.35, 1.57, 7.47, repro,
2008-04-06,-0.24, -4.19, -23.91, 2.35, 1.57, 7.50, repro,
2008-04-07,0.72, -2.74, -5.10, 2.33, 1.55, 7.43, repro,
2008-04-08,0.36, -2.25, -15.83, 2.32, 1.54, 7.34, repro,
2008-04-09,1.27, -2.02, -13.98, 2.33, 1.54, 7.37, repro,
2008-04-10,0.08, -4.80, -7.64, 2.33, 1.55, 7.37, repro,
2008-04-11,0.89, -2.78, -10.86, 2.33, 1.55, 7.42, repro,
2008-04-12,1.28, -1.34, -16.30, 2.34, 1.56, 7.40, repro,
2008-04-13,0.37, -0.60, -10.84, 2.33, 1.54, 7.36, repro,
2008-04-14,0.93, -2.53, -12.12, 2.31, 1.53, 7.31, repro,
2008-04-15,0.78, -1.61, -6.29, 2.37, 1.58, 7.39, repro,
2008-04-16,-0.78, -4.35, -11.23, 2.39, 1.59, 7.52, repro,
2008-04-17,-0.54, -3.64, -22.55, 2.30, 1.54, 7.34, repro,
2008-04-18,1.14, -2.95, -29.64, 2.32, 1.54, 7.37, repro,
2008-04-19,2.89, -2.30, -29.40, 2.30, 1.54, 7.27, repro,
2008-04-20,2.86, -1.63, -19.70, 2.30, 1.53, 7.26, repro,
2008-04-21,2.88, -0.89, -17.23, 2.33, 1.53, 7.35, repro,
2008-04-22,3.18, -1.22, -18.20, 2.32, 1.53, 7.34, repro,
2008-04-23,1.39, -2.05, -23.26, 2.43, 1.60, 7.66, repro,
2008-04-24,2.58, -3.64, -21.29, 2.37, 1.57, 7.49, repro,
2008-04-25,2.41, -3.04, -24.45, 2.28, 1.54, 7.32, repro,
2008-04-26,2.00, -3.95, -15.16, 2.42, 1.61, 7.66, repro,
2008-04-27,1.65, -2.80, -20.81, 2.39, 1.58, 7.50, repro,
2008-04-28,0.96, -4.20, -13.17, 2.39, 1.59, 7.55, repro,
2008-04-29,2.01, -3.94, -6.44, 2.43, 1.60, 7.66, repro,
2008-04-30,2.37, -1.28, -9.91, 2.29, 1.54, 7.33, repro,
2008-05-01,2.94, -2.77, -9.12, 2.32, 1.54, 7.38, repro,
2008-05-02,1.66, -0.10, -9.27, 2.32, 1.54, 7.36, repro,
2008-05-03,1.70, 2.87, -6.00, 2.33, 1.55, 7.44, repro,
2008-05-04,2.03, 1.46, -9.14, 2.33, 1.54, 7.44, repro,
2008-05-05,0.73, 1.58, -19.15, 2.29, 1.53, 7.32, repro,
2008-05-06,-0.29, 0.80, -20.03, 2.33, 1.58, 7.52, repro,
2008-05-07,-0.63, -0.04, -23.41, 2.29, 1.53, 7.29, repro,
2008-05-08,0.12, -0.89, -26.40, 2.39, 1.57, 7.67, repro,
2008-05-09,0.82, -1.84, -24.29, 2.34, 1.55, 7.49, repro,
2008-05-10,2.49, -1.29, -13.33, 2.31, 1.54, 7.39, repro,
2008-05-11,3.26, -0.24, -8.72, 2.31, 1.55, 7.41, repro,
2008-05-12,1.54, 1.66, -8.35, 2.31, 1.56, 7.46, repro,
2008-05-13,0.72, 1.31, -7.93, 2.32, 1.56, 7.47, repro,
2008-05-14,0.94, -0.10, -13.01, 2.34, 1.56, 7.49, repro,
2008-05-15,1.41, 0.59, -12.85, 2.32, 1.56, 7.41, repro,
2008-05-16,0.69, 1.02, -19.64, 2.29, 1.55, 7.39, repro,
2008-05-17,0.33, 0.76, -14.58, 2.29, 1.54, 7.37, repro,
2008-05-18,0.59, 0.41, -18.22, 2.27, 1.55, 7.32, repro,
2008-05-19,2.49, 0.64, -15.52, 2.32, 1.55, 7.42, repro,
2008-05-20,3.32, 1.72, -11.50, 2.31, 1.55, 7.41, repro,
2008-05-21,2.11, 1.13, -8.86, 2.28, 1.55, 7.36, repro,
2008-05-22,1.19, 1.59, -17.24, 2.33, 1.58, 7.57, repro,
2008-05-23,3.40, 0.93, -18.08, 2.32, 1.56, 7.46, repro,
2008-05-24,2.26, 1.37, -23.39, 2.33, 1.56, 7.47, repro,
2008-05-25,2.64, 2.51, -26.78, 2.31, 1.54, 7.39, repro,
2008-05-26,3.22, 2.27, -12.97, 2.30, 1.56, 7.38, repro,
2008-05-27,3.71, 1.59, -10.20, 2.29, 1.54, 7.35, repro,
2008-05-28,2.65, 1.44, -10.92, 2.31, 1.54, 7.37, repro,
2008-05-29,1.32, 1.54, -9.26, 2.32, 1.55, 7.36, repro,
2008-05-30,2.82, 0.51, -9.29, 2.33, 1.54, 7.33, repro,
2008-05-31,3.46, 0.04, -12.08, 2.31, 1.54, 7.32, repro,
2008-06-01,1.90, 0.85, -9.10, 2.30, 1.55, 7.42, repro,
2008-06-02,1.85, 1.14, -6.89, 2.32, 1.56, 7.42, repro,
2008-06-03,1.33, -0.47, -10.80, 2.34, 1.57, 7.55, repro,
2008-06-04,0.95, 0.00, -11.06, 2.33, 1.55, 7.37, repro,
2008-06-05,1.25, 0.21, -8.66, 2.32, 1.55, 7.34, repro,
2008-06-06,1.15, 0.26, -17.10, 2.35, 1.57, 7.46, repro,
2008-06-07,1.02, 1.50, -13.06, 2.44, 1.63, 7.74, repro,
2008-06-08,2.63, 1.80, -13.42, 2.36, 1.59, 7.46, repro,
2008-06-09,2.36, 1.10, -12.94, 2.39, 1.59, 7.46, repro,
2008-06-10,2.77, 0.68, -13.91, 2.31, 1.55, 7.37, repro,
2008-06-11,2.45, 1.09, -14.72, 2.32, 1.56, 7.37, repro,
2008-06-12,2.62, -0.23, -14.32, 2.35, 1.58, 7.53, repro,
2008-06-13,4.44, 0.20, -13.00, 2.32, 1.56, 7.38, repro,
2008-06-14,2.43, 0.01, -11.61, 2.37, 1.60, 7.54, repro,
2008-06-15,2.62, -0.00, -14.68, 2.45, 1.66, 7.72, repro,
2008-06-16,2.63, 0.90, -14.77, 2.31, 1.55, 7.36, repro,
2008-06-17,0.75, 0.79, -15.41, 2.31, 1.56, 7.39, repro,
2008-06-18,3.47, 0.47, -14.01, 2.29, 1.56, 7.34, repro,
2008-06-19,1.45, 0.42, -11.88, 2.34, 1.58, 7.55, repro,
2008-06-20,1.82, 0.73, -5.84, 2.40, 1.58, 7.45, repro,
2008-06-21,2.08, 0.62, -12.50, 2.37, 1.60, 7.51, repro,
2008-06-22,1.65, -0.73, -10.13, 2.35, 1.57, 7.47, repro,
2008-06-23,1.58, 0.23, -7.01, 2.29, 1.54, 7.34, repro,
2008-06-24,2.56, 1.54, -4.03, 2.29, 1.53, 7.25, repro,
2008-06-25,2.69, -0.21, -7.19, 2.32, 1.54, 7.32, repro,
2008-06-26,1.20, -0.46, -7.75, 2.33, 1.57, 7.56, repro,
2008-06-27,1.27, -0.27, -9.92, 2.33, 1.55, 7.40, repro,
2008-06-28,-0.06, 0.86, -9.18, 2.29, 1.54, 7.32, repro,
2008-06-29,2.09, -0.51, -11.02, 2.29, 1.54, 7.28, repro,
2008-06-30,-0.24, 0.05, -11.71, 2.33, 1.54, 7.36, repro,
2008-07-01,1.64, -0.22, -8.90, 2.36, 1.56, 7.43, repro,
2008-07-02,1.40, 1.64, -8.14, 2.33, 1.54, 7.33, repro,
2008-07-03,-0.82, 0.75, -9.62, 2.34, 1.55, 7.39, repro,
2008-07-04,2.03, 1.19, -6.95, 2.29, 1.54, 7.34, repro,
2008-07-05,1.73, 0.28, -7.20, 2.29, 1.53, 7.29, repro,
2008-07-06,1.23, 1.00, -3.73, 2.32, 1.54, 7.32, repro,
2008-07-07,0.67, 0.11, -4.29, 2.31, 1.55, 7.35, repro,
2008-07-08,-0.02, 1.16, -4.78, 2.30, 1.54, 7.32, repro,
2008-07-09,0.68, 0.54, -1.84, 2.27, 1.54, 7.28, repro,
2008-07-10,0.83, 0.29, -1.62, 2.31, 1.58, 7.45, repro,
2008-07-11,1.35, -0.21, -4.84, 2.37, 1.59, 7.53, repro,
2008-07-12,0.87, -0.65, -4.15, 2.34, 1.54, 7.44, repro,
2008-07-13,1.02, -0.20, -4.87, 2.31, 1.54, 7.33, repro,
2008-07-14,0.89, 1.37, -7.39, 2.31, 1.54, 7.30, repro,
2008-07-15,0.82, 0.72, -6.44, 2.27, 1.53, 7.23, repro,
2008-07-16,1.13, 0.32, 0.66, 2.39, 1.57, 7.41, repro,
2008-07-17,-0.36, -0.37, -1.31, 2.35, 1.57, 7.48, repro,
2008-07-18,1.59, -1.10, 6.25, 2.35, 1.58, 7.65, repro,
2008-07-19,1.06, 0.14, 2.20, 2.34, 1.57, 7.57, repro,
2008-07-20,1.26, 0.83, 2.63, 2.27, 1.53, 7.24, repro,
2008-07-21,1.86, -0.50, 6.61, 2.28, 1.54, 7.26, repro,
2008-07-22,0.91, 0.08, -4.40, 2.32, 1.55, 7.37, repro,
2008-07-23,2.37, 0.34, -6.29, 2.35, 1.59, 7.58, repro,
2008-07-24,1.18, -0.38, -1.57, 2.30, 1.55, 7.35, repro,
2008-07-25,-1.00, 0.27, -4.89, 2.30, 1.55, 7.27, repro,
2008-07-26,-0.10, 1.10, -3.47, 2.28, 1.54, 7.29, repro,
2008-07-27,1.16, 0.95, -2.03, 2.35, 1.57, 7.42, repro,
2008-07-28,1.52, -0.62, -0.37, 2.41, 1.61, 7.54, repro,
2008-07-29,0.47, 0.26, 3.42, 2.35, 1.60, 7.42, repro,
2008-07-30,1.68, 0.16, 0.74, 2.38, 1.64, 7.49, repro,
2008-07-31,1.60, 0.61, -4.20, 2.28, 1.54, 7.29, repro,
2008-08-01,2.28, -1.60, 1.43, 2.33, 1.55, 7.43, repro,
2008-08-02,1.98, -0.29, -0.83, 2.31, 1.55, 7.35, repro,
2008-08-03,-1.07, -1.14, -3.91, 2.33, 1.58, 7.59, repro,
2008-08-04,1.07, -1.08, 1.48, 2.32, 1.58, 7.36, repro,
2008-08-05,2.58, -0.36, -3.25, 2.32, 1.57, 7.34, repro,
2008-08-06,1.62, -0.83, 1.01, 2.33, 1.57, 7.53, repro,
2008-08-07,2.89, 0.46, -1.76, 2.45, 1.60, 7.69, repro,
2008-08-08,0.73, 0.57, -0.25, 2.45, 1.60, 7.62, repro,
2008-08-09,1.12, 0.58, -2.91, 2.32, 1.56, 7.39, repro,
2008-08-10,0.13, 0.44, -1.47, 2.33, 1.57, 7.40, repro,
2008-08-11,2.64, 0.23, -2.70, 2.30, 1.56, 7.37, repro,
2008-08-12,0.40, 0.53, -3.60, 2.39, 1.60, 7.55, repro,
2008-08-13,-0.76, -0.41, -1.30, 2.38, 1.61, 7.58, repro,
2008-08-14,-1.71, -0.75, -2.64, 2.34, 1.57, 7.48, repro,
2008-08-15,0.51, -0.35, -0.24, 2.34, 1.61, 7.49, repro,
2008-08-16,0.35, -0.52, -3.41, 2.33, 1.58, 7.47, repro,
2008-08-17,-0.33, 1.65, -5.23, 2.38, 1.60, 7.57, repro,
2008-08-18,0.38, 0.33, -1.44, 2.37, 1.59, 7.51, repro,
2008-08-19,0.51, -0.43, 5.62, 2.34, 1.56, 7.49, repro,
2008-08-20,0.30, 0.37, 4.05, 2.32, 1.56, 7.43, repro,
2008-08-21,-0.17, 0.56, 5.92, 2.32, 1.57, 7.42, repro,
2008-08-22,-1.17, -0.01, 6.40, 2.31, 1.56, 7.48, repro,
2008-08-23,-1.13, 1.30, 2.38, 2.36, 1.56, 7.46, repro,
2008-08-24,-1.84, 1.18, 1.83, 2.38, 1.57, 7.54, repro,
2008-08-25,-1.02, -0.49, 5.53, 2.33, 1.57, 7.47, repro,
2008-08-26,-2.17, 0.77, 10.16, 2.31, 1.56, 7.38, repro,
2008-08-27,-0.89, 1.25, 4.14, 2.37, 1.58, 7.60, repro,
2008-08-28,-1.30, 0.71, 0.93, 2.46, 1.65, 7.75, repro,
2008-08-29,-0.93, 0.30, -3.10, 2.40, 1.58, 7.62, repro,
2008-08-30,0.13, 0.61, -5.51, 2.37, 1.57, 7.54, repro,
2008-08-31,0.77, -0.39, -2.73, 2.38, 1.59, 7.60, repro,
2008-09-01,-1.50, 0.64, 3.41, 2.38, 1.59, 7.65, repro,
2008-09-02,0.11, -0.23, 1.37, 2.38, 1.59, 7.64, repro,
2008-09-03,1.01, -0.50, 1.45, 2.41, 1.59, 7.66, repro,
2008-09-04,0.13, 0.21, -8.66, 2.57, 1.70, 8.40, repro,
2008-09-05,-0.95, -1.56, 1.50, 2.36, 1.60, 7.58, repro,
2008-09-06,-1.06, -0.31, 6.41, 2.36, 1.58, 7.58, repro,
2008-09-07,1.22, -0.14, -0.49, 2.44, 1.66, 7.84, repro,
2008-09-08,-0.48, -0.27, 3.99, 2.40, 1.59, 7.63, repro,
2008-09-09,0.49, -0.21, 3.84, 2.42, 1.60, 7.70, repro,
2008-09-10,-1.82, 0.64, 0.60, 2.38, 1.58, 7.56, repro,
2008-09-11,-1.55, -0.51, 6.62, 2.46, 1.64, 7.81, repro,
2008-09-12,-0.37, 0.08, 10.96, 2.39, 1.62, 7.72, repro,
2008-09-13,-0.56, 0.72, 6.48, 2.40, 1.59, 7.65, repro,
2008-09-14,0.79, 0.36, 6.01, 2.40, 1.59, 7.65, repro,
2008-09-15,-0.24, -0.25, 3.91, 2.41, 1.62, 7.74, repro,
2008-09-16,-1.72, 0.75, 2.70, 2.35, 1.57, 7.61, repro,
2008-09-17,-1.01, -0.04, 5.96, 2.39, 1.62, 8.03, repro,
2008-09-18,-0.06, 1.24, 1.01, 2.32, 1.55, 7.49, repro,
2008-09-19,0.28, 0.69, 2.84, 2.36, 1.57, 7.51, repro,
2008-09-20,-1.31, 0.22, 8.63, 2.40, 1.60, 7.60, repro,
2008-09-21,-0.16, 0.59, 7.66, 2.32, 1.57, 7.43, repro,
2008-09-22,-1.28, -0.53, 3.76, 2.31, 1.57, 7.45, repro,
2008-09-23,-0.72, 0.69, -3.42, 2.30, 1.55, 7.41, repro,
2008-09-24,-0.19, 0.32, 1.30, 2.33, 1.56, 7.49, repro,
2008-09-25,1.77, -0.24, 6.83, 2.35, 1.57, 7.48, repro,
2008-09-26,-0.99, 0.70, 4.76, 2.33, 1.55, 7.43, repro,
2008-09-27,-0.17, -0.34, 4.97, 2.30, 1.54, 7.38, repro,
2008-09-28,-1.97, 1.46, 2.06, 2.32, 1.56, 7.46, repro,
2008-09-29,-0.14, 0.94, 0.36, 2.30, 1.54, 7.43, repro,
2008-09-30,-0.50, 0.32, 5.04, 2.35, 1.55, 7.45, repro,
2008-10-01,-1.42, 0.54, 3.64, 2.33, 1.55, 7.42, repro,
2008-10-02,-0.43, 0.02, 11.07, 2.35, 1.57, 7.46, repro,
2008-10-03,-1.35, 1.03, 6.52, 2.32, 1.54, 7.38, repro,
2008-10-04,-1.67, -0.35, 11.85, 2.31, 1.55, 7.39, repro,
2008-10-05,0.49, -0.79, 2.94, 2.34, 1.55, 7.42, repro,
2008-10-06,-0.53, 0.33, 7.20, 2.35, 1.55, 7.42, repro,
2008-10-07,1.21, -1.30, 11.41, 2.35, 1.59, 7.56, repro,
2008-10-08,3.36, -0.85, -10.15, 2.39, 1.58, 7.45, repro,
2008-10-09,0.60, -0.19, 0.33, 2.29, 1.53, 7.26, repro,
2008-10-10,1.37, 0.56, 1.84, 2.32, 1.54, 7.36, repro,
2008-10-11,0.01, -0.47, -1.56, 2.40, 1.58, 7.53, repro,
2008-10-12,0.54, -0.26, 2.54, 2.33, 1.54, 7.37, repro,
2008-10-13,-0.14, -0.22, 4.62, 2.30, 1.54, 7.31, repro,
2008-10-14,-0.23, -1.69, 4.63, 2.30, 1.54, 7.31, repro,
2008-10-15,0.78, -1.42, 5.73, 2.31, 1.55, 7.55, repro,
2008-10-16,1.13, -0.27, 3.96, 2.37, 1.57, 7.63, repro,
2008-10-17,0.22, -0.30, -4.01, 2.32, 1.54, 7.32, repro,
2008-10-18,1.46, -0.03, 1.50, 2.31, 1.53, 7.30, repro,
2008-10-19,-0.66, -0.39, 0.44, 2.29, 1.54, 7.30, repro,
2008-10-20,-0.22, -0.45, -1.61, 2.26, 1.52, 7.23, repro,
2008-10-21,0.60, 0.69, 1.92, 2.32, 1.53, 7.28, repro,
2008-10-22,-1.15, 1.85, 2.12, 2.30, 1.52, 7.26, repro,
2008-10-23,0.02, 0.55, 4.09, 2.32, 1.52, 7.27, repro,
2008-10-24,0.49, -0.41, 2.81, 2.29, 1.53, 7.25, repro,
2008-10-25,-0.12, 0.26, 0.63, 2.30, 1.53, 7.26, repro,
2008-10-26,0.23, 0.18, -3.81, 2.28, 1.52, 7.27, repro,
2008-10-27,2.10, 0.22, -3.63, 2.30, 1.52, 7.23, repro,
2008-10-28,0.35, -0.11, -1.93, 2.39, 1.57, 7.49, repro,
2008-10-29,0.32, -0.05, 1.01, 2.44, 1.63, 7.69, repro,
2008-10-30,-0.07, 0.02, -0.01, 2.30, 1.54, 7.28, repro,
2008-10-31,0.16, -0.24, -1.92, 2.40, 1.61, 7.67, repro,
2008-11-01,-0.17, 1.28, -0.14, 2.32, 1.54, 7.30, repro,
2008-11-02,-0.16, 0.04, 5.32, 2.33, 1.55, 7.37, repro,
2008-11-03,-1.29, -0.23, 3.80, 2.38, 1.56, 7.52, repro,
2008-11-04,0.42, -0.90, 5.74, 2.34, 1.56, 7.48, repro,
2008-11-05,-0.01, -0.95, -1.37, 2.43, 1.59, 7.65, repro,
2008-11-06,0.37, 0.54, -0.34, 2.35, 1.56, 7.47, repro,
2008-11-07,-1.03, 0.53, 5.23, 2.36, 1.57, 7.60, repro,
2008-11-08,-0.98, 0.04, -7.12, 2.37, 1.57, 7.58, repro,
2008-11-09,-1.11, 1.55, 0.04, 2.36, 1.57, 7.50, repro,
2008-11-10,1.19, 0.62, 7.62, 2.35, 1.57, 7.62, repro,
2008-11-11,1.48, -4.32, 8.83, 2.37, 1.56, 7.56, repro,
2008-11-12,-1.94, 0.80, 8.34, 2.31, 1.55, 7.32, repro,
2008-11-13,-1.26, 0.43, 1.66, 2.32, 1.54, 7.30, repro,
2008-11-14,-0.95, 0.49, -2.28, 2.37, 1.59, 7.68, repro,
2008-11-15,-0.91, 1.92, -6.23, 2.38, 1.59, 7.67, repro,
2008-11-16,-0.60, 0.53, -12.05, 2.38, 1.61, 7.89, repro,
2008-11-17,1.31, -0.92, -11.51, 2.36, 1.57, 7.59, repro,
2008-11-18,1.92, -0.53, -11.14, 2.41, 1.60, 7.73, repro,
2008-11-19,1.75, -2.50, -20.46, 2.39, 1.59, 7.69, repro,
2008-11-20,1.66, -1.36, -7.75, 2.36, 1.58, 7.57, repro,
2008-11-21,2.52, -1.23, -8.44, 2.45, 1.66, 8.08, repro,
2008-11-22,2.19, -1.13, 5.51, 2.41, 1.61, 7.80, repro,
2008-11-23,6.02, -0.66, -10.70, 2.45, 1.60, 7.71, repro,
2008-11-24,5.06, -1.06, 2.03, 2.40, 1.63, 8.05, repro,
2008-11-25,6.49, -2.07, -2.18, 2.39, 1.63, 7.90, repro,
2008-11-26,-0.41, -1.61, -9.96, 2.34, 1.56, 7.42, repro,